Location: Iesi
(43.5167°N, 13.2333°E)
Time: 07:14:44
(UTC+00:00)

Daily predictions for brighter satellites

Satellite Brightness Start Highest point End
(mag) Time Altitude Azimuth Time Altitude Azimuth Time Altitude Azimuth
FREGAT/IRIS 2.2 18:48:44 10° SSE 18:51:22 87° ENE 18:54:01 10° N
Cosmos 2218 Rocket 4.0 18:46:38 10° S 18:52:48 82° E 18:58:58 10° N
Cosmos 405 4.1 18:51:14 10° NNW 18:54:34 45° W 18:57:52 10° S
H-2A R/B 3.2 18:51:21 10° S 18:56:20 46° W 19:01:13 10° NNW
Cosmos 1782 2.8 18:54:07 10° N 18:58:09 85° E 19:02:10 10° S
Cosmos 1805 Rocket 4.3 18:55:16 10° SSE 18:59:15 34° E 19:03:17 10° NNE
MOS 1 4.4 18:54:41 10° SSE 19:00:20 89° WSW 19:06:02 10° NNW
Cosmos 1980 Rocket 3.9 18:56:35 10° N 19:00:32 19° NE 19:04:28 10° E
ERBS 4.0 18:58:01 10° WSW 19:01:09 37° NW 19:04:16 10° NE
DMSP B5D2-2 4.0 19:01:13 10° NNE 19:06:29 77° ESE 19:11:42 10° S
SL-4 R/B 2.6 19:05:23 10° SSW 19:09:02 32° SE 19:12:27 10° ENE
ATLAS 5 CENTAUR R/B 2.5 19:03:40 10° NNW 19:09:23 69° NE 19:15:44 11° SE
MetOp-A 4.2 19:08:52 10° SSE 19:14:14 84° WSW 19:19:38 10° NNW
Cosmos 1833 Rocket 3.0 19:10:28 10° S 19:15:42 43° ESE 19:20:59 10° NE
Cosmos 1697 Rocket 3.4 19:11:35 10° NNW 19:16:52 39° ENE 19:21:20 14° ESE
Cosmos 2228 Rocket 3.1 19:14:03 10° N 19:18:30 89° E 19:22:53 10° S
SPOT 3 Rocket 3.6 19:15:14 10° SSE 19:20:26 77° ENE 19:25:39 10° N
Cosmos 1633 Rocket 4.3 19:18:04 13° SE 19:20:57 24° E 19:24:29 10° NE
Cosmos 389 Rocket 2.6 19:18:06 10° N 19:21:29 53° ENE 19:24:21 14° SSE
Cosmos 2251 Rocket 4.1 19:17:30 10° SSW 19:22:42 62° WNW 19:27:57 10° NNE
Cosmos 1812 2.9 19:19:39 10° N 19:23:24 50° ENE 19:26:33 14° SSE
Cosmos 1727 Rocket 4.1 19:17:15 10° N 19:23:39 87° W 19:30:00 10° S
Cosmos 1656 3.6 19:23:03 10° NNW 19:28:34 83° ENE 19:33:31 13° SSE
IRIDIUM 104 4.3 19:25:29 10° S 19:30:40 79° E 19:35:55 10° N
Resurs 01 Rocket 1.6 19:27:31 12° SSE 19:31:35 69° ENE 19:36:00 10° N
Cosmos 1707 Rocket 4.0 19:28:43 10° N 19:32:54 43° ENE 19:35:43 18° SE
Cosmos 220 Rocket 4.0 19:28:52 10° NNW 19:33:04 64° ENE 19:36:04 18° SSE
Cosmos 972 Rocket 4.2 19:29:57 10° NNW 19:34:55 66° WSW 19:39:45 10° S
FALCON 9 DEB 3.7 19:33:58 10° SSW 19:37:11 36° SE 19:40:26 10° ENE
Cosmos 1441 Rocket 3.1 19:33:34 10° S 19:37:23 80° E 19:41:10 10° NNE
Cosmos 1934 Rocket 4.4 19:32:03 10° SSE 19:38:01 45° E 19:44:01 10° NNE
IRIDIUM 114 4.4 19:34:36 10° S 19:39:49 86° W 19:45:05 10° N
Cosmos 614 Rocket 3.9 19:35:59 10° SSW 19:41:07 85° ESE 19:46:21 10° NNE
NOSS 3-2 (A) 4.1 19:37:27 10° SSE 19:42:04 27° ESE 19:47:06 10° NE
IGS 5A 4.1 19:41:07 22° SE 19:43:17 39° ENE 19:47:09 10° N
USA 267 3.3 19:41:38 10° NE 19:48:13 89° NW 19:54:46 10° SW
SWAS 4.4 19:44:22 10° SSW 19:48:36 62° ESE 19:52:53 10° NNE
Cosmos 1821 Rocket 4.0 19:45:03 10° S 19:51:10 89° W 19:57:25 10° N
GP-B 3.7 19:47:11 10° NNE 19:51:21 39° E 19:53:13 26° SE
COSMOS 2406 3.6 19:47:54 10° SSW 19:53:38 68° WNW 19:59:22 10° NNE
Shenzhou-11 Module 1.4 19:53:15 10° W 19:55:30 61° SSW 19:55:30 61° SSW
Cosmos 921 Rocket 4.5 19:53:33 10° N 19:56:51 22° ENE 19:58:03 19° E
ERS-1 Rocket 3.8 19:56:08 23° ESE 19:58:20 34° ENE 20:02:50 10° N
SL-16 R/B 4.1 19:55:34 10° N 19:59:13 17° NE 20:02:26 11° E
Intercosmos 25 3.5 19:54:57 10° NNW 19:59:15 64° W 20:01:25 20° S
Cosmos 1862 Rocket 4.1 19:55:11 10° N 19:59:26 41° ENE 20:01:01 30° ESE
Lacrosse 5 3.8 19:57:56 10° NW 20:01:58 23° NNE 20:06:00 10° ENE
Sich 1 3.5 19:59:09 10° SSW 20:03:32 65° W 20:07:58 10° N
Cosmos 2369 3.7 19:59:02 10° NNW 20:04:48 82° ENE 20:08:05 27° SSE
Cosmos 2082 Rocket 2.1 20:03:02 10° SSW 20:08:42 68° ESE 20:14:21 10° NNE
BREEZE-M DEB (TANK) 3.9 20:06:44 10° WNW 20:08:55 22° N 20:09:54 16° NE
Cosmos 1818 3.6 20:04:02 10° NW 20:09:30 75° WSW 20:12:24 28° SSE
Cosmos 1954 Rocket 4.1 20:06:50 19° S 20:10:27 53° ESE 20:15:38 10° NNE
Cosmos 2278 3.8 20:08:23 10° NNW 20:14:06 66° ENE 20:16:44 32° SE
Cosmos 2123 Rocket 3.9 20:07:59 10° N 20:14:13 80° E 20:18:06 25° SSE
Spot 2 Rocket 3.4 20:11:25 27° SSE 20:14:14 85° ENE 20:19:22 10° NNW
Cosmos 1535 Rocket 4.4 20:08:44 13° S 20:14:17 80° E 20:20:25 10° N
Meteor 2-20 4.4 20:09:48 10° N 20:16:00 87° W 20:20:07 22° S
CARTOSAT-1 3.9 20:20:05 40° ESE 20:21:07 50° ENE 20:25:19 10° N
Cosmos 1184 Rocket 2.6 20:21:02 71° ESE 20:21:08 72° E 20:24:26 10° NNE
Cosmos 1190 Rocket 4.2 20:16:13 10° SSW 20:21:29 74° WNW 20:26:48 10° NNE
Meteor 1-4 Rocket 2.4 20:18:18 10° NNW 20:21:47 81° W 20:22:26 56° S
Cosmos 2322 Rocket 4.0 20:17:40 10° N 20:21:50 20° NE 20:24:25 15° E
Terra 2.7 20:21:08 30° E 20:22:16 34° ENE 20:26:34 10° N
USA 234 3.3 20:18:46 27° ESE 20:22:36 74° NE 20:29:08 10° NW
Cosmos 407 Rocket 4.2 20:19:14 10° SW 20:24:28 57° WNW 20:29:42 10° NNE
Cosmos 1605 Rocket 3.9 20:21:08 26° SSE 20:24:36 65° E 20:30:39 10° NNE
Cosmos 1933 Rocket 3.9 20:24:16 42° ESE 20:24:41 43° E 20:28:53 10° NNE
Cosmos 1666 Rocket 4.1 20:21:27 13° SSW 20:25:09 57° W 20:29:26 10° N
Meteor 1-20 Rocket 4.3 20:23:25 28° S 20:26:28 65° E 20:32:15 10° NNE
Cosmos 1238 Rocket 3.2 20:28:02 34° NE 20:28:02 34° NE 20:29:58 10° NNE
Cosmos 1602 4.3 20:31:37 42° ENE 20:31:37 42° ENE 20:35:02 10° NNE
Okean 1 4.0 20:27:34 10° N 20:31:24 39° ENE 20:31:27 39° E
CZ-4B DEB 4.3 20:35:36 77° NE 20:35:36 77° NE 20:38:48 10° N
Cosmos 2360 Rocket 4.3 20:32:32 10° N 20:35:47 15° NE 20:38:35 11° ENE
Cosmos 1437 Rocket 4.0 20:32:33 10° NNE 20:35:27 27° ENE 20:35:27 27° ENE
SPOT 5 2.6 20:35:54 53° ESE 20:36:36 62° ENE 20:40:54 10° N
USA 238 DEB 3.5 20:31:00 10° SSW 20:37:31 68° ESE 20:44:19 10° NE
USA 238 3.5 20:31:08 10° SSW 20:37:38 67° ESE 20:44:25 10° NE
BREEZE-M DEB (TANK) 4.3 20:37:41 10° WSW 20:38:41 11° WSW 20:39:00 11° SW
Meteor 1-19 Rocket 4.4 20:35:45 10° N 20:41:02 50° ENE 20:42:13 43° ESE
SPOT 1/Viking Rocket 3.8 20:39:53 34° S 20:42:08 67° WSW 20:47:21 10° NNW
Cosmos 1980 Rocket 2.2 20:39:33 10° NNW 20:45:15 81° WSW 20:47:04 45° SSE
Cosmos 1703 Rocket 4.0 20:42:55 10° N 20:47:05 46° ENE 20:47:05 46° ENE
Cosmos 2242 Rocket 3.5 20:42:45 10° N 20:47:10 64° E 20:47:29 62° ESE
Meteor 1-14 Rocket 4.4 20:46:52 46° SE 20:48:13 56° E 20:54:01 10° NNE
SL-4 R/B 2.7 20:44:45 10° WSW 20:48:32 48° NNW 20:51:35 13° NE
Cosmos 405 Rocket 2.8 20:49:22 64° NE 20:49:22 64° NE 20:52:36 10° NNE
Cosmos 1763 Rocket 4.0 20:45:03 10° N 20:50:09 44° ENE 20:51:08 40° E
BREEZE-M DEB (TANK) 4.0 20:47:05 10° WNW 20:50:11 44° N 20:58:59 10° E
Genesis I 3.1 20:46:57 10° NW 20:50:44 84° WNW 20:50:44 84° WNW
ATLAS 5 CENTAUR R/B 4.1 20:49:01 10° WNW 20:53:50 25° WSW 20:57:17 17° SSW
USA 32 4.5 20:53:02 27° SSW 20:55:46 59° W 21:00:57 10° N
Cosmos 1459 Rocket 4.3 20:58:06 42° ESE 20:58:59 45° E 21:04:58 10° NNE
Cosmos 1833 Rocket 4.5 20:54:49 10° WSW 20:59:45 31° NW 21:04:44 10° N
Cosmos 1697 Rocket 4.0 20:55:46 10° NW 21:00:41 32° WSW 21:03:04 23° SW
Cosmos 1153 Rocket 4.3 21:03:26 45° S 21:05:28 86° E 21:11:40 10° N
CENTAUR R/B 2.4 21:04:46 51° SSE 21:06:01 62° ESE 21:12:46 10° NE
Cosmos 1867 4.2 21:00:52 10° SW 21:06:12 56° NW 21:11:35 10° NNE
Resurs 01 Rocket 4.3 21:06:57 10° WSW 21:08:32 12° W 21:10:08 10° WNW
Meteor 1-18 Rocket 4.1 21:03:04 10° NNW 21:08:42 84° W 21:09:49 59° S
Okean 1-7 3.1 21:04:30 10° N 21:08:30 67° NE 21:08:30 67° NE
NOSS 3-3 (A) 4.5 21:03:45 10° NW 21:11:22 86° NE 21:14:20 45° SE
NOSS 3-3 (C) 4.5 21:03:52 10° NW 21:11:28 86° NE 21:14:26 45° SE
Cosmos 1802 Rocket 4.3 21:13:52 47° ESE 21:14:32 49° E 21:20:37 10° NNE
Cosmos 1850 Rocket 3.8 21:14:18 72° SSE 21:14:43 78° ESE 21:20:01 10° NNE
Meteor 2-4 Rocket 3.7 21:12:45 10° N 21:18:25 65° ENE 21:18:53 62° ESE
Cosmos 1515 4.4 21:15:22 10° N 21:18:22 53° NNW 21:18:22 53° NNW
Cosmos 44 4.4 21:18:01 10° NNW 21:22:31 35° NE 21:23:09 34° ENE
ATLAS 5 CENTAUR R/B 3.5 21:19:53 10° NNW 21:22:44 33° NE 21:23:25 32° ENE
NOSS 3-2 (A) 4.0 21:26:47 10° SW 21:32:22 55° NW 21:38:47 10° NNE
Cosmos 921 Rocket 4.3 21:31:25 10° NW 21:34:50 33° W 21:34:50 33° W
ERS-1 Rocket 4.3 21:36:08 28° WSW 21:37:07 30° W 21:41:32 10° NW
NOSS 3-2 (C) 3.4 21:35:51 39° SW 21:38:07 77° NW 21:44:38 10° NE
Cosmos 841 Rocket 3.6 21:36:59 10° NNW 21:42:00 65° NE 21:42:00 65° NE
Cosmos 540 Rocket 3.6 21:38:29 10° NNW 21:43:22 63° NE 21:43:22 63° NE
SL-16 R/B 2.0 21:38:27 10° NNW 21:44:10 90° ENE 21:44:17 86° SSE
Lacrosse 5 2.0 21:40:39 10° NW 21:45:31 68° NNE 21:45:31 68° NNE
Cosmos 468 Rocket 4.4 21:40:34 10° NNW 21:45:45 54° WSW 21:45:46 54° WSW
Cosmos 1741 Rocket 4.5 21:48:23 50° WSW 21:49:13 56° WNW 21:54:26 10° NNE
Cosmos 2082 Rocket 4.5 21:49:00 10° W 21:53:19 22° NW 21:57:38 10° N
Cosmos 1570 Rocket 4.0 21:48:08 10° NNW 21:53:10 78° N 21:53:10 78° N
Tsikada Rocket 4.2 21:48:20 10° N 21:54:37 57° ENE 21:54:55 56° E
Cosmos 2219 Rocket 4.0 21:50:44 10° N 21:55:04 22° NE 21:56:38 19° ENE
Cosmos 2208 Rocket 4.1 21:50:19 10° NNW 21:55:11 69° NNE 21:55:11 69° NNE
Cosmos 1814 Rocket 4.2 21:50:46 10° NNW 21:55:32 66° NNE 21:55:32 66° NNE
Terra 3.3 22:00:02 27° W 22:00:03 27° W 22:04:05 10° NW
Cosmos 2237 4.4 21:54:53 10° NNW 22:00:34 61° ENE 22:00:35 61° ENE
USA 234 4.1 22:06:06 34° SW 22:06:06 34° SW 22:11:47 10° WNW
Cosmos 2322 Rocket 2.2 22:00:48 10° NNW 22:06:13 73° W 22:06:13 73° W
Cosmos 2100 Rocket 4.5 22:05:35 44° WSW 22:06:53 52° WNW 22:12:53 10° N
Meteor 1-11 Rocket 3.7 22:09:09 82° N 22:09:09 82° N 22:14:37 10° N
Cosmos 2360 Rocket 2.3 22:15:04 10° NNW 22:20:19 73° NNE 22:20:19 73° NNE
ATLAS 3B R/B 2.4 22:21:12 79° ESE 22:21:12 79° ESE 22:27:43 10° NE
COSMOS 2428 4.1 22:16:41 10° N 22:21:40 30° NE 22:22:37 28° ENE
ALOS 2 3.8 22:27:44 41° N 22:27:44 41° N 22:30:39 10° N
Cosmos 1725 Rocket 4.0 22:27:19 68° WSW 22:27:41 70° W 22:34:00 10° N
SL-4 R/B 4.4 22:25:45 10° WNW 22:27:12 17° NW 22:27:12 17° NW
Nimbus 7 Rocket 4.4 22:26:49 10° NNE 22:32:15 76° NE 22:32:15 76° NE
Cosmos 2333 Rocket 2.8 22:35:41 10° NNW 22:41:17 48° ENE 22:41:19 48° ENE
Lacrosse 4 Rocket 3.5 22:45:24 23° NE 22:45:24 23° NE 22:47:05 10° NNE
Cosmos 2237 Rocket 4.3 22:41:09 10° N 22:45:10 19° NE 22:47:32 15° ENE
Meteor 2-11 Rocket 4.4 22:51:23 76° NE 22:51:23 76° NE 22:57:02 10° N
CENTAUR R/B 4.1 22:51:50 11° W 22:57:11 33° NW 23:03:39 10° NNE
Cosmos 968 Rocket 4.2 22:59:01 49° NNE 22:59:01 49° NNE 23:02:43 10° NNE
Cosmos 1464 Rocket 4.1 23:15:36 68° ENE 23:15:36 68° ENE 23:21:27 10° NNE
Cosmos 2227 Rocket 4.0 23:22:42 20° E 23:22:42 20° E 23:25:47 10° NE
Meteor 1-21 4.4 23:20:07 10° N 23:25:21 70° NNE 23:25:21 70° NNE
Lacrosse 5 4.4 23:24:23 10° WNW 23:24:41 11° WNW 23:24:41 11° WNW
Cosmos 2322 4.5 23:25:26 10° NNW 23:29:31 43° WNW 23:29:31 43° WNW
Nadezhda 4 Rocket 4.0 23:31:45 10° N 23:38:03 70° E 23:38:04 70° E
Cosmos 2219 Rocket 2.7 23:33:54 10° NNW 23:38:19 52° NW 23:38:19 52° NW
Cosmos 2034 Rocket 3.9 23:43:53 81° ENE 23:43:53 81° ENE 23:50:04 10° N
Okean 2 Rocket 4.4 23:45:22 37° NNE 23:45:22 37° NNE 23:48:14 10° NNE
SL-16 R/B 3.9 23:46:16 25° ESE 23:48:44 33° ENE 23:54:14 10° N
Cosmos 1092 Rocket 4.3 23:46:06 10° N 23:52:15 56° ENE 23:52:45 55° E
GEOS 3 Rocket 4.4 23:49:06 10° NE 23:53:18 46° E 23:53:18 46° E
CZ-2D R/B 3.6 23:50:19 10° NE 23:54:54 27° E 23:54:54 27° E
